GSAT0219 (PRN E36)

Last updated on Feb. 26, 2020, 4:49 a.m. UTC

1 43566U 18060C   20055.81377287 -.00000054  00000-0  00000-0 0  9994
2 43566  56.7408  44.1556 0005890 284.5554  75.3792  1.70475950  9905
UTC
Height (km)
Latitude
Longitude
Inclination
Orbital Period
UTC large
Height (km)
Speed (km/s)
/
Latitude / Longitude
Inclination (degrees)
Orbital Period (minutes)
Azimuth
Elevation
Range (km)
Doppler Factor
iOS Compass Heading
iOS Angle

Next 30 passes for location: Hong Kong

Rise time Rise Azimuth (degrees) Set time Set Azimuth (degrees) Duration Max altitude (degrees)

No matching passes for this satellites